Regional Weather Roundup
Issued by NWS Kansas City/Pleasant Hill, MO

Home | Current Version | Previous Version | Graphics & Text | Print | Product List | Glossary Off
Versions: 1 2 3 4 5 6 7 8 9 10 11 12 13 14 15 16 17 18 19 20 21 22 23 24 25 26 27 28 29 30 31 32 33 34 35 36 37 38 39 40 41 42 43 44 45 46 47 48 49 50

000
ASUS43 KEAX 231310
RWREAX

WEATHER ROUNDUP FOR EASTERN KANSAS AND NORTHWEST MISSOURI
NATIONAL WEATHER SERVICE KANSAS CITY/PLEASANT HILL MO
800 AM CDT FRI JUN 23 2017

KSZ040-057-103>105-MOZ028-029-037-043-231400-
...KANSAS CITY METROPOLITAN AREA...

CITY           SKY/WX    TMP DP  RH WIND       PRES   REMARKS
K.C. INTL      CLOUDY    71  66  84 N15       29.83R
K.C. DOWNTOWN  CLOUDY    74  67  78 N12       29.80R
LEES SUMMIT    LGT RAIN  73  70  90 N15       29.80R
OLATHE - IXD   LGT RAIN  71  66  84 N12       29.81R
OLATHE - OJC   LGT RAIN  70  68  93 NE8       29.81R
LAWRENCE       CLOUDY    73  66  78 N7        29.83R

$$

MOZ001>008-011>017-020>025-030>033-038>040-044>046-053-054-231400-
...NORTHERN AND CENTRAL MISSOURI...

CITY           SKY/WX    TMP DP  RH WIND       PRES   REMARKS
ST. JOSEPH     PTSUNNY   72  65  78 N12       29.85R
WARRENSBURG    CLOUDY    72  68  88 N10G17    29.76R
WHITEMAN AFB   PTSUNNY   74  74 100 N15G22    29.74R
CLINTON        LGT RAIN  73  73 100 NW7       29.76R
SEDALIA        CLOUDY    75  74  96 E9        29.76R
WARSAW         NOT AVBL
CHILLICOTHE      N/A     74  70  87 VRB7      29.82R
KIRKSVILLE     CLOUDY    69  67  93 N12       29.78R

$$

MOZ041-047>049-056>058-063>065-088>090-097-231400-
...EASTERN AND SOUTHERN MISSOURI...

CITY           SKY/WX    TMP DP  RH WIND       PRES   REMARKS
ST. LOUIS INTL LGT RAIN  78  73  84 W8        29.72S
SPIRIT OF STL  CLOUDY    77  73  87 SW6       29.69F
COLUMBIA       MOSUNNY   73  69  87 N12       29.74F
JEFFERSON CITY MOSUNNY   73  66  78 CALM      29.73F
ROLLA          PTSUNNY   73  69  87 N7        29.75R
OSAGE BEACH    PTSUNNY   75  72  90 SW3       29.74R
SPRINGFIELD    MOSUNNY   76  73  91 W5        29.77R
BRANSON        CLOUDY    73  72  94 CALM      29.78R
JOPLIN         SUNNY     78  75  90 W7        29.77R
WEST PLAINS    CLOUDY    75  73  93 N7        29.75R

$$

IAZ060-094-KSZ022-034>040-054-083-096-NEZ052-066-093-231400-
...KANSAS...SOUTHEAST NEBRASKA AND IOWA...

CITY           SKY/WX    TMP DP  RH WIND       PRES   REMARKS
TOPEKA         CLOUDY    72  65  78 N13       29.85R
MANHATTAN      PTSUNNY   73  59  61 NE13      29.89R
EMPORIA        PTSUNNY   73  65  75 N16       29.83R
CHANUTE        SUNNY     77  72  84 NW7       29.76R
WICHITA        PTSUNNY   75  68  78 N21       29.83R
OMAHA          CLOUDY    65  54  67 N8        29.92R
LINCOLN        CLOUDY    68  52  56 N14       29.97R
FALLS CITY     MOSUNNY   68  60  75 N12       29.89R
LAMONI         SUNNY     68  64  87 N10       29.85R
DES MOINES     MOSUNNY   67  60  78 NW13      29.87R

$$




USA.gov is the U.S. government's official web portal to all federal, state and local government web resources and services.